Location: Ciserano
(45.5833°N, 9.6000°E)
Time: 18:26:20
(UTC+00:00)

Cosmos 1844 Rocket - Visible Passes

Search period start: 16 April 2021 00:00
Search period end: 26 April 2021 00:00
Orbit: 826 x 843 km, 71.0° (Epoch: 15 April)

Date Brightness Start Highest point End Pass type
(mag) Time Alt. Az. Time Alt. Az. Time Alt. Az.
16 Apr 3.3 00:30:38 53° NE 00:30:38 53° NE 00:34:52 10° NNE visible
16 Apr 4.3 02:12:16 18° WNW 02:13:51 20° NW 02:17:55 10° N visible
17 Apr 3.4 00:13:37 48° NE 00:13:37 48° NE 00:17:37 10° NNE visible
17 Apr 4.3 01:55:16 20° WNW 01:56:32 21° NW 02:00:46 10° N visible
17 Apr 3.6 23:56:35 43° NE 23:56:35 43° NE 00:00:22 10° NNE visible
18 Apr 4.2 01:38:13 22° WNW 01:39:14 23° NW 01:43:37 10° N visible
18 Apr 3.7 23:39:31 39° NE 23:39:31 39° NE 23:43:06 10° NNE visible
19 Apr 4.1 01:21:09 24° WNW 01:21:55 25° NW 01:26:28 10° N visible
19 Apr 3.8 23:22:25 36° NE 23:22:25 36° NE 23:25:51 10° NNE visible
20 Apr 4.1 01:04:03 26° WNW 01:04:38 26° NW 01:09:18 10° N visible
20 Apr 3.9 23:05:18 34° NE 23:05:18 34° NE 23:08:34 10° NE visible
21 Apr 4.0 00:46:55 28° WNW 00:47:20 28° NW 00:52:08 10° N visible
21 Apr 4.0 22:48:08 31° ENE 22:48:08 31° ENE 22:51:17 10° NE visible
22 Apr 3.9 00:29:45 30° WNW 00:30:03 30° NW 00:34:57 10° N visible
22 Apr 4.0 22:30:56 30° ENE 22:30:56 30° ENE 22:34:00 10° NE visible
23 Apr 3.9 00:12:33 33° WNW 00:12:46 33° NW 00:17:47 10° N visible
23 Apr 4.0 22:13:41 28° ENE 22:13:41 28° ENE 22:16:42 10° NE visible
23 Apr 3.8 23:55:19 35° WNW 23:55:29 35° NW 00:00:35 10° NNE visible
24 Apr 4.0 21:56:23 27° ENE 21:56:23 27° ENE 21:59:24 10° NE visible
24 Apr 3.7 23:38:01 38° WNW 23:38:12 38° NW 23:43:24 10° NNE visible
25 Apr 4.0 21:39:03 26° ENE 21:39:03 26° ENE 21:42:05 10° NE visible
25 Apr 3.5 23:20:40 41° WNW 23:20:55 41° NW 23:26:12 10° NNE visible
